Content
SEND FEEDBACK

Daily
Averages
Monthly
Summary
United States of America

PYGA BEACH, GUAM


Home > North America > United States > Guam
Elevation: 6 meters     Latitude: 13 17N     Longitude: 144 39E

WEATHER
 
SELECT A DAY
Number of Records: 352,394;   Date Range: 1/1/95 - 10/29/14
 
SHARE

PRINT THIS DATA

[ ← Previous Day ]
WEATHER ALMANAC - 12 MAY, 2013
[ Next Day → ]
[ °F ]   °C
Weather ElementAverageHighLow
Temperature26.8 °C29.4 °C (11:55 am)24.5 °C (10:55 pm)
Dewpoint24 °C25 °C (8:42 am)22.2 °C (8:55 pm)
Humidity84.9 %94 % (12:33 am)71 % (4:55 pm)
Barometer1010.8 hPa1012.2 hPa (10:19 pm)1009.1 hPa (3:55 pm)
Wind Speed13.5 km/h25.9 km/h (10:19 pm)
Wind Gust44.4 km/h (10:19 pm)
Weather ElementAverage
Visibility15.6 km
Wind DirectionE (88.2 °)

Weather ElementTotal
Precipitation0.25 mm
Cooling Degree Days8.6 (Base 18.3)
Growing Degree Days16.9 (Base 10)
Averaged from 65 records on 12 May, 2013
WEATHER CONDITIONS BREAKOUT
WIND DIRECTION BREAKOUT
WEATHER BY HOUR - 12 MAY, 2013
[ °F ]   °C
Local TimeTemperatureDewpointHumidityBarometerVisibilityWind DirectionWind SpeedGust SpeedPrecipitationEventsConditions
12:33 AM25 °C24 °C94 %1010.5 hPa16.1 kmESE (120°)11.1 km/hOvercast
12:39 AM25 °C24 °C94 %1010.5 hPa16.1 kmESE (110°)9.3 km/hMostly Cloudy
12:41 AM25 °C24 °C94 %1010.5 hPa16.1 kmESE (110°)11.1 km/hMostly Cloudy
12:44 AM25 °C24 °C94 %1010.5 hPa16.1 kmESE (110°)11.1 km/hMostly Cloudy
12:46 AM25 °C24 °C94 %1010.5 hPa16.1 kmESE (110°)11.1 km/hMostly Cloudy
12:55 AM25.2 °C24.1 °C94 %1010.5 hPa16.1 kmESE (110°)9.3 km/hOvercast
1:55 AM25.3 °C23.6 °C90 %1010.2 hPa16.1 kmESE (120°)7.4 km/hMostly Cloudy
2:55 AM25 °C23.9 °C94 %1009.5 hPa16.1 kmENE (70°)5.6 km/hClear
3:55 AM24.6 °C23.4 °C93 %1009.5 hPa16.1 kmENE (60°)7.4 km/hClear
4:55 AM24.6 °C23.3 °C92 %1009.8 hPa16.1 kmNE (40°)5.6 km/hClear
5:55 AM24.9 °C23.8 °C94 %1010.2 hPa16.1 kmCalmClear
6:55 AM26 °C24.4 °C91 %1010.5 hPa16.1 kmENE (70°)5.6 km/hPartly Cloudy
7:10 AM26 °C24 °C89 %1010.8 hPa16.1 kmENE (70°)7.4 km/hMostly Cloudy
7:17 AM26 °C24 °C89 %1010.8 hPa16.1 kmENE (60°)7.4 km/hScattered Clouds
7:55 AM27.5 °C24.2 °C82 %1011.2 hPa16.1 kmENE (60°)11.1 km/hPartly Cloudy
8:10 AM28 °C24 °C79 %1011.2 hPa16.1 kmENE (70°)9.3 km/hMostly Cloudy
8:24 AM28 °C24 °C79 %1011.2 hPa16.1 kmENE (60°)13 km/hMostly Cloudy
8:42 AM28 °C25 °C84 %1011.5 hPa16.1 kmEast (80°)13 km/hOvercast
8:46 AM28 °C25 °C84 %1011.5 hPa16.1 kmENE (70°)14.8 km/hOvercast
8:51 AM28 °C25 °C84 %1011.5 hPa16.1 kmENE (70°)16.7 km/hMostly Cloudy
8:55 AM28.4 °C24.6 °C80 %1011.5 hPa16.1 kmENE (70°)14.8 km/hMostly Cloudy
9:05 AM28 °C25 °C84 %1011.5 hPa16.1 kmENE (70°)16.7 km/hScattered Clouds
9:21 AM29 °C25 °C79 %1011.5 hPa16.1 kmEast (80°)13 km/hMostly Cloudy
9:24 AM29 °C25 °C79 %1011.5 hPa16.1 kmEast (100°)16.7 km/hScattered Clouds
9:31 AM28 °C24 °C79 %1011.5 hPa16.1 kmEast (90°)13 km/hMostly Cloudy
9:39 AM28 °C25 °C84 %1011.5 hPa16.1 kmEast (100°)14.8 km/hMostly Cloudy
9:40 AM28 °C25 °C84 %1011.9 hPa16.1 kmEast (90°)16.7 km/hMostly Cloudy
9:42 AM28 °C25 °C84 %1011.9 hPa16.1 kmEast (100°)16.7 km/hMostly Cloudy
9:55 AM28.5 °C24.5 °C79 %1011.9 hPa16.1 kmEast (90°)14.8 km/hMostly Cloudy
10:04 AM29 °C24 °C74 %1011.9 hPa16.1 kmEast (90°)16.7 km/hScattered Clouds
10:55 AM28.8 °C24.5 °C77 %1011.5 hPa16.1 kmEast (100°)14.8 km/hScattered Clouds
11:55 AM29.4 °C24.6 °C75 %1011.2 hPa16.1 kmENE (70°)18.5 km/hScattered Clouds
12:30 PM29 °C24 °C74 %1010.8 hPa16.1 kmESE (110°)14.8 km/hMostly Cloudy
12:39 PM29 °C24 °C74 %1010.8 hPa16.1 kmEast (100°)13 km/hMostly Cloudy
12:55 PM29.4 °C24.4 °C74 %1010.5 hPa16.1 kmEast (90°)13 km/hScattered Clouds
1:55 PM28.8 °C24 °C75 %1010.2 hPa16.1 kmESE (110°)14.8 km/hScattered Clouds
2:12 PM29 °C24 °C74 %1009.8 hPa16.1 kmSE (130°)13 km/hMostly Cloudy
2:25 PM29 °C24 °C74 %1009.8 hPa16.1 kmEast (100°)16.7 km/hScattered Clouds
2:46 PM29 °C24 °C74 %1009.5 hPa16.1 kmEast (90°)14.8 km/hMostly Cloudy
2:55 PM28.7 °C24.1 °C76 %1009.5 hPa16.1 kmEast (100°)13 km/hMostly Cloudy
3:02 PM29 °C24 °C74 %1009.5 hPa16.1 kmEast (100°)13 km/hScattered Clouds
3:55 PM29 °C24.1 °C75 %1009.1 hPa16.1 kmEast (90°)16.7 km/hPartly Cloudy
4:55 PM28.5 °C22.7 °C71 %1009.1 hPa16.1 kmEast (100°)13 km/hPartly Cloudy
5:55 PM27.5 °C22.4 °C74 %1009.5 hPa16.1 kmEast (80°)11.1 km/hScattered Clouds
6:55 PM26.8 °C23.3 °C81 %1010.2 hPa16.1 kmEast (80°)11.1 km/hPartly Cloudy
7:55 PM26.7 °C22.3 °C77 %1010.5 hPa16.1 kmEast (90°)9.3 km/hClear
8:33 PM27 °C24 °C84 %1011.2 hPa16.1 kmENE (60°)20.4 km/hMostly Cloudy
8:40 PM26 °C23 °C83 %1011.2 hPa16.1 kmENE (70°)20.4 km/hMostly Cloudy
8:55 PM25.5 °C22.2 °C82 %1011.2 hPa16.1 kmENE (60°)13 km/hMostly Cloudy
9:55 PM26 °C23.6 °C87 %1011.9 hPa16.1 kmNE (50°)14.8 km/hScattered Clouds
9:58 PM26 °C24 °C89 %1011.9 hPa14.5 kmENE (60°)14.8 km/hRainLight Rain
10:03 PM26 °C24 °C89 %1011.9 hPa8 kmENE (60°)9.3 km/hRainRain
10:11 PM25 °C24 °C94 %1011.9 hPa14.5 kmEast (80°)24.1 km/hMostly Cloudy
10:14 PM26 °C24 °C89 %1011.9 hPa16.1 kmEast (80°)20.4 km/hMostly Cloudy
10:19 PM26 °C24 °C89 %1012.2 hPa16.1 kmEast (90°)25.9 km/h44.4 km/hMostly Cloudy
10:24 PM25 °C24 °C94 %1012.2 hPa16.1 kmEast (100°)24.1 km/h44.4 km/hOvercast
10:27 PM25 °C24 °C94 %1012.2 hPa16.1 kmESE (110°)18.5 km/hOvercast
10:30 PM25 °C24 °C94 %1012.2 hPa16.1 kmESE (120°)22.2 km/hLight Drizzle
10:35 PM25 °C24 °C94 %1012.2 hPa16.1 kmESE (120°)20.4 km/hLight Drizzle
10:40 PM25 °C24 °C94 %1011.9 hPa14.5 kmESE (120°)18.5 km/hOvercast
10:46 PM25 °C24 °C94 %1011.9 hPa11.3 kmSE (130°)13 km/hLight Drizzle
10:48 PM25 °C24 °C94 %1011.9 hPa9.7 kmSE (130°)11.1 km/hLight Drizzle
10:55 PM24.5 °C23.5 °C94 %1011.9 hPa12.9 kmESE (120°)9.3 km/h0.25 mmLight Drizzle
10:56 PM25 °C24 °C94 %1011.9 hPa14.5 kmESE (120°)9.3 km/hOvercast
11:55 PM24.9 °C23.7 °C93 %1011.9 hPa16.1 kmENE (60°)11.1 km/hMostly Cloudy
Hourly data recorded from PGUA, located 0 kilometers away from Pyga Beach, Guam







STORIES FROM OUR PARTNERS